Time,TemperatureF,DewpointF,PressureIn,WindDirection,WindDirectionDegrees,WindSpeedMPH,WindSpeedGustMPH,Humidity,HourlyPrecipIn,Conditions,Clouds,dailyrainin,SoftwareType,DateUTC
2013-04-27 00:04:00,71.4,66.0,29.18,South,182,7.6,8.3,83,0.00,,,0.00,LWC V2.10 B1813,2013-04-27 05:04:00,
2013-04-27 00:09:00,71.4,66.0,29.18,SSE,159,7.6,8.1,83,0.00,,,0.00,LWC V2.10 B1813,2013-04-27 05:09:00,
2013-04-27 00:14:00,71.2,66.1,29.18,ESE,102,8.1,8.1,84,0.00,,,0.00,LWC V2.10 B1813,2013-04-27 05:14:00,
2013-04-27 00:19:00,71.2,66.1,29.18,ESE,123,7.2,8.3,84,0.00,,,0.00,LWC V2.10 B1813,2013-04-27 05:19:00,
2013-04-27 00:24:00,71.2,66.1,29.18,South,189,3.6,8.1,84,0.00,,,0.00,LWC V2.10 B1813,2013-04-27 05:24:00,
2013-04-27 00:29:00,71.1,66.0,29.18,SSW,196,7.2,10.5,84,0.00,,,0.00,LWC V2.10 B1813,2013-04-27 05:29:00,
2013-04-27 00:34:00,71.1,66.0,29.20,ENE,60,6.7,8.1,84,0.00,,,0.00,LWC V2.10 B1813,2013-04-27 05:34:00,
2013-04-27 00:39:00,70.9,65.8,29.20,SSE,148,5.8,7.6,84,0.00,,,0.00,LWC V2.10 B1813,2013-04-27 05:39:00,
2013-04-27 00:44:00,70.9,66.1,29.20,SE,140,10.1,10.1,85,0.00,,,0.00,LWC V2.10 B1813,2013-04-27 05:44:00,
2013-04-27 00:49:00,70.7,66.0,29.20,South,183,5.4,8.1,85,0.00,,,0.00,LWC V2.10 B1813,2013-04-27 05:49:00,
2013-04-27 00:54:00,70.5,65.8,29.20,SE,146,8.7,8.7,85,0.00,,,0.00,LWC V2.10 B1813,2013-04-27 05:54:00,
2013-04-27 00:59:00,70.5,65.8,29.20,South,173,4.0,7.6,85,0.00,,,0.00,LWC V2.10 B1813,2013-04-27 05:59:00,
2013-04-27 01:02:00,70.5,65.8,29.18,ESE,106,5.4,8.7,85,0.00,,,0.00,LWC V2.10 B1813,2013-04-27 06:02:00,
2013-04-27 01:07:00,70.3,65.6,29.18,SSE,156,4.0,11.0,85,0.00,,,0.00,LWC V2.10 B1813,2013-04-27 06:07:00,
2013-04-27 01:12:00,70.3,65.6,29.18,South,173,4.0,11.9,85,0.00,,,0.00,LWC V2.10 B1813,2013-04-27 06:12:00,
2013-04-27 01:17:00,70.3,65.9,29.18,SSE,156,4.9,10.1,86,0.00,,,0.00,LWC V2.10 B1813,2013-04-27 06:17:00,
2013-04-27 01:22:00,70.2,65.8,29.18,SE,132,8.3,8.3,86,0.00,,,0.00,LWC V2.10 B1813,2013-04-27 06:22:00,
2013-04-27 01:27:00,70.2,65.8,29.18,South,176,4.0,8.3,86,0.00,,,0.00,LWC V2.10 B1813,2013-04-27 06:27:00,
2013-04-27 01:32:00,70.2,65.8,29.18,SSE,150,8.3,8.7,86,0.00,,,0.00,LWC V2.10 B1813,2013-04-27 06:32:00,
2013-04-27 01:37:00,70.0,65.6,29.18,SSE,156,5.8,10.5,86,0.00,,,0.00,LWC V2.10 B1813,2013-04-27 06:37:00,
2013-04-27 01:42:00,70.0,65.6,29.18,SSW,192,8.1,11.0,86,0.00,,,0.00,LWC V2.10 B1813,2013-04-27 06:42:00,
2013-04-27 01:47:00,69.8,65.7,29.18,South,173,4.9,6.7,87,0.00,,,0.00,LWC V2.10 B1813,2013-04-27 06:47:00,
2013-04-27 01:52:00,69.8,65.7,29.18,SE,145,4.0,5.4,87,0.00,,,0.00,LWC V2.10 B1813,2013-04-27 06:52:00,
2013-04-27 01:57:00,69.8,65.7,29.18,SSE,153,6.3,6.7,87,0.00,,,0.00,LWC V2.10 B1813,2013-04-27 06:57:00,
2013-04-27 02:02:00,69.8,65.7,29.18,SSE,154,7.6,11.9,87,0.00,,,0.00,LWC V2.10 B1813,2013-04-27 07:02:00,
2013-04-27 02:07:00,69.8,65.7,29.18,SSE,152,8.7,8.7,87,0.00,,,0.00,LWC V2.10 B1813,2013-04-27 07:07:00,
2013-04-27 02:12:00,69.8,65.7,29.18,SE,145,3.1,12.8,87,0.00,,,0.00,LWC V2.10 B1813,2013-04-27 07:12:00,
2013-04-27 02:17:00,69.8,65.7,29.18,SSE,159,3.6,10.5,87,0.00,,,0.00,LWC V2.10 B1813,2013-04-27 07:17:00,
2013-04-27 02:22:00,69.6,65.9,29.18,SSE,160,5.4,10.1,88,0.00,,,0.00,LWC V2.10 B1813,2013-04-27 07:22:00,
2013-04-27 02:27:00,69.6,65.9,29.18,South,173,5.8,10.5,88,0.00,,,0.00,LWC V2.10 B1813,2013-04-27 07:27:00,
2013-04-27 02:32:00,69.6,65.9,29.18,South,178,5.8,8.3,88,0.00,,,0.00,LWC V2.10 B1813,2013-04-27 07:32:00,
2013-04-27 02:37:00,69.6,65.9,29.18,South,169,8.1,12.3,88,0.00,,,0.00,LWC V2.10 B1813,2013-04-27 07:37:00,
2013-04-27 02:42:00,69.6,65.9,29.18,South,170,8.7,10.1,88,0.00,,,0.00,LWC V2.10 B1813,2013-04-27 07:42:00,
2013-04-27 02:47:00,69.4,65.7,29.15,SSE,164,8.3,11.0,88,0.00,,,0.00,LWC V2.10 B1813,2013-04-27 07:47:00,
2013-04-27 02:52:00,69.4,65.7,29.15,SSE,153,11.9,11.9,88,0.00,,,0.00,LWC V2.10 B1813,2013-04-27 07:52:00,
2013-04-27 02:57:00,69.3,65.9,29.15,SSE,164,5.8,8.3,89,0.00,,,0.00,LWC V2.10 B1813,2013-04-27 07:57:00,
2013-04-27 03:02:00,69.3,65.9,29.15,SSW,195,8.3,8.3,89,0.00,,,0.00,LWC V2.10 B1813,2013-04-27 08:02:00,
2013-04-27 03:07:00,69.1,65.7,29.15,East,95,7.2,11.0,89,0.00,,,0.00,LWC V2.10 B1813,2013-04-27 08:07:00,
2013-04-27 03:12:00,68.9,65.5,29.15,SE,133,6.3,7.6,89,0.00,,,0.00,LWC V2.10 B1813,2013-04-27 08:12:00,
2013-04-27 03:17:00,68.9,65.5,29.15,SSE,149,6.3,11.9,89,0.00,,,0.00,LWC V2.10 B1813,2013-04-27 08:17:00,
2013-04-27 03:22:00,68.9,65.5,29.15,East,99,4.0,9.2,89,0.00,,,0.00,LWC V2.10 B1813,2013-04-27 08:22:00,
2013-04-27 03:27:00,68.9,65.8,29.15,South,172,6.3,10.1,90,0.00,,,0.00,LWC V2.10 B1813,2013-04-27 08:27:00,
2013-04-27 03:32:00,68.9,65.8,29.15,East,89,2.7,8.7,90,0.00,,,0.00,LWC V2.10 B1813,2013-04-27 08:32:00,
2013-04-27 03:37:00,68.7,65.7,29.15,SSE,151,7.6,10.1,90,0.00,,,0.00,LWC V2.10 B1813,2013-04-27 08:37:00,
2013-04-27 03:42:00,68.7,65.7,29.15,South,172,6.3,6.7,90,0.00,,,0.00,LWC V2.10 B1813,2013-04-27 08:42:00,
2013-04-27 03:47:00,68.5,65.5,29.15,SE,139,5.4,8.7,90,0.00,,,0.00,LWC V2.10 B1813,2013-04-27 08:47:00,
2013-04-27 03:52:00,68.5,65.8,29.15,South,185,8.3,8.3,91,0.00,,,0.00,LWC V2.10 B1813,2013-04-27 08:52:00,
2013-04-27 03:57:00,68.5,65.8,29.15,South,172,5.4,8.3,91,0.00,,,0.00,LWC V2.10 B1813,2013-04-27 08:57:00,
2013-04-27 04:02:00,68.5,65.8,29.15,SE,143,4.0,5.4,91,0.00,,,0.00,LWC V2.10 B1813,2013-04-27 09:02:00,
2013-04-27 04:07:00,68.4,65.6,29.15,South,181,4.9,8.7,91,0.00,,,0.00,LWC V2.10 B1813,2013-04-27 09:07:00,
2013-04-27 04:12:00,68.4,65.6,29.15,SE,140,3.6,6.3,91,0.00,,,0.00,LWC V2.10 B1813,2013-04-27 09:12:00,
2013-04-27 04:17:00,68.2,65.4,29.15,SSE,147,3.1,8.1,91,0.00,,,0.00,LWC V2.10 B1813,2013-04-27 09:17:00,
2013-04-27 04:22:00,68.2,65.8,29.15,SSE,147,4.0,5.4,92,0.00,,,0.00,LWC V2.10 B1813,2013-04-27 09:22:00,
2013-04-27 04:27:00,68.2,65.8,29.15,SSW,193,4.5,6.3,92,0.00,,,0.00,LWC V2.10 B1813,2013-04-27 09:27:00,
2013-04-27 04:32:00,68.2,65.8,29.15,South,190,2.7,6.3,92,0.00,,,0.00,LWC V2.10 B1813,2013-04-27 09:32:00,
2013-04-27 04:37:00,68.2,65.8,29.15,SSE,155,4.0,6.3,92,0.00,,,0.00,LWC V2.10 B1813,2013-04-27 09:37:00,
2013-04-27 04:42:00,68.4,65.9,29.15,SSE,167,5.4,6.3,92,0.00,,,0.00,LWC V2.10 B1813,2013-04-27 09:42:00,
2013-04-27 04:47:00,68.4,65.9,29.15,SSW,192,2.2,5.4,92,0.00,,,0.00,LWC V2.10 B1813,2013-04-27 09:47:00,
2013-04-27 04:52:00,68.4,65.9,29.15,SSE,156,4.0,5.4,92,0.00,,,0.00,LWC V2.10 B1813,2013-04-27 09:52:00,
2013-04-27 04:57:00,68.4,65.9,29.15,South,172,2.7,3.1,92,0.00,,,0.00,LWC V2.10 B1813,2013-04-27 09:57:00,
2013-04-27 05:02:00,68.4,65.9,29.15,SW,218,2.2,3.1,92,0.00,,,0.00,LWC V2.10 B1813,2013-04-27 10:02:00,
2013-04-27 05:07:00,68.5,66.1,29.15,South,172,2.2,3.1,92,0.00,,,0.00,LWC V2.10 B1813,2013-04-27 10:07:00,
2013-04-27 05:12:00,68.5,66.1,29.15,SSE,166,3.6,4.9,92,0.00,,,0.00,LWC V2.10 B1813,2013-04-27 10:12:00,
2013-04-27 05:17:00,68.5,66.1,29.15,South,174,3.6,3.6,92,0.00,,,0.00,LWC V2.10 B1813,2013-04-27 10:17:00,
2013-04-27 05:22:00,68.5,66.1,29.15,South,180,0.0,0.0,92,0.00,,,0.00,LWC V2.10 B1813,2013-04-27 10:22:00,
2013-04-27 05:27:00,68.5,66.1,29.15,SSE,164,2.2,2.2,92,0.00,,,0.00,LWC V2.10 B1813,2013-04-27 10:27:00,
2013-04-27 05:32:00,68.5,66.1,29.15,South,181,0.0,0.0,92,0.00,,,0.00,LWC V2.10 B1813,2013-04-27 10:32:00,
2013-04-27 05:37:00,68.5,66.1,29.15,South,181,0.0,0.0,92,0.00,,,0.00,LWC V2.10 B1813,2013-04-27 10:37:00,
2013-04-27 05:42:00,68.7,66.3,29.15,South,184,0.0,0.0,92,0.00,,,0.00,LWC V2.10 B1813,2013-04-27 10:42:00,
2013-04-27 05:47:00,68.7,66.3,29.15,South,185,0.0,0.0,92,0.00,,,0.00,LWC V2.10 B1813,2013-04-27 10:47:00,
2013-04-27 05:52:00,68.7,66.0,29.15,South,185,0.0,0.0,91,0.00,,,0.00,LWC V2.10 B1813,2013-04-27 10:52:00,
2013-04-27 05:57:00,68.7,66.0,29.15,South,185,0.0,0.0,91,0.00,,,0.00,LWC V2.10 B1813,2013-04-27 10:57:00,
2013-04-27 06:02:00,68.7,66.0,29.18,South,185,0.0,0.0,91,0.00,,,0.00,LWC V2.10 B1813,2013-04-27 11:02:00,
2013-04-27 06:07:00,68.7,66.0,29.18,South,185,0.0,0.0,91,0.00,,,0.00,LWC V2.10 B1813,2013-04-27 11:07:00,
2013-04-27 06:12:00,68.7,66.0,29.18,South,185,0.0,0.0,91,0.00,,,0.00,LWC V2.10 B1813,2013-04-27 11:12:00,
2013-04-27 06:17:00,68.7,66.0,29.18,South,184,2.7,2.7,91,0.00,,,0.00,LWC V2.10 B1813,2013-04-27 11:17:00,
2013-04-27 06:22:00,68.5,65.8,29.18,NNE,24,2.7,3.1,91,0.00,,,0.00,LWC V2.10 B1813,2013-04-27 11:22:00,
2013-04-27 06:27:00,68.5,65.8,29.18,NNE,20,2.7,3.1,91,0.00,,,0.00,LWC V2.10 B1813,2013-04-27 11:27:00,
2013-04-27 06:32:00,68.5,65.8,29.18,NNE,20,0.0,0.0,91,0.00,,,0.00,LWC V2.10 B1813,2013-04-27 11:32:00,
2013-04-27 06:37:00,68.5,65.8,29.18,NNE,19,0.0,0.0,91,0.00,,,0.00,LWC V2.10 B1813,2013-04-27 11:37:00,
2013-04-27 06:42:00,68.5,66.1,29.18,NNE,19,0.0,0.0,92,0.00,,,0.00,LWC V2.10 B1813,2013-04-27 11:42:00,
2013-04-27 06:47:00,68.4,65.9,29.18,NNE,19,0.0,0.0,92,0.00,,,0.00,LWC V2.10 B1813,2013-04-27 11:47:00,
2013-04-27 06:52:00,68.4,65.9,29.18,South,175,0.0,3.6,92,0.00,,,0.00,LWC V2.10 B1813,2013-04-27 11:52:00,
2013-04-27 06:57:00,68.4,65.9,29.18,SE,142,3.6,3.6,92,0.00,,,0.00,LWC V2.10 B1813,2013-04-27 11:57:00,
2013-04-27 07:02:00,68.2,65.8,29.18,SSE,152,0.0,2.7,92,0.00,,,0.00,LWC V2.10 B1813,2013-04-27 12:02:00,
2013-04-27 07:07:00,68.2,65.8,29.18,East,96,2.7,2.7,92,0.00,,,0.00,LWC V2.10 B1813,2013-04-27 12:07:00,
2013-04-27 07:12:00,68.2,65.8,29.18,ESE,103,0.0,0.0,92,0.00,,,0.00,LWC V2.10 B1813,2013-04-27 12:12:00,
2013-04-27 07:17:00,68.2,65.8,29.18,ESE,103,0.0,0.0,92,0.00,,,0.00,LWC V2.10 B1813,2013-04-27 12:17:00,
2013-04-27 07:22:00,68.2,65.8,29.18,ESE,103,0.0,0.0,92,0.00,,,0.00,LWC V2.10 B1813,2013-04-27 12:22:00,
2013-04-27 07:27:00,68.2,65.8,29.18,East,92,0.0,0.0,92,0.00,,,0.00,LWC V2.10 B1813,2013-04-27 12:27:00,
2013-04-27 07:32:00,68.2,65.8,29.18,ESE,102,0.0,0.0,92,0.00,,,0.00,LWC V2.10 B1813,2013-04-27 12:32:00,
2013-04-27 07:37:00,68.2,65.8,29.18,ESE,102,2.2,3.6,92,0.00,,,0.00,LWC V2.10 B1813,2013-04-27 12:37:00,
2013-04-27 07:42:00,68.2,65.8,29.18,East,92,0.0,2.7,92,0.00,,,0.00,LWC V2.10 B1813,2013-04-27 12:42:00,
2013-04-27 07:47:00,68.2,65.8,29.20,East,99,2.7,3.1,92,0.00,,,0.00,LWC V2.10 B1813,2013-04-27 12:47:00,
2013-04-27 07:52:00,68.2,65.8,29.20,East,91,2.7,2.7,92,0.00,,,0.00,LWC V2.10 B1813,2013-04-27 12:52:00,
2013-04-27 07:57:00,68.4,66.3,29.20,ENE,66,5.4,5.4,93,0.00,,,0.00,LWC V2.10 B1813,2013-04-27 12:57:00,
2013-04-27 08:02:00,68.5,66.4,29.20,East,89,3.1,4.0,93,0.00,,,0.00,LWC V2.10 B1813,2013-04-27 13:02:00,
2013-04-27 08:07:00,68.7,66.6,29.20,ESE,117,0.0,2.7,93,0.00,,,0.00,LWC V2.10 B1813,2013-04-27 13:07:00,
2013-04-27 08:12:00,68.9,66.8,29.20,ESE,110,3.1,3.1,93,0.00,,,0.00,LWC V2.10 B1813,2013-04-27 13:12:00,
2013-04-27 08:17:00,69.3,67.1,29.20,ESE,111,3.6,3.6,93,0.00,,,0.00,LWC V2.10 B1813,2013-04-27 13:17:00,
2013-04-27 08:22:00,69.3,67.1,29.20,SSE,157,3.1,3.1,93,0.00,,,0.00,LWC V2.10 B1813,2013-04-27 13:22:00,
2013-04-27 08:27:00,69.3,67.1,29.20,SE,128,3.6,3.6,93,0.00,,,0.00,LWC V2.10 B1813,2013-04-27 13:27:00,
2013-04-27 08:32:00,69.4,67.3,29.20,SE,125,0.0,3.1,93,0.00,,,0.00,LWC V2.10 B1813,2013-04-27 13:32:00,
2013-04-27 08:37:00,69.6,67.5,29.20,East,99,0.0,4.0,93,0.00,,,0.00,LWC V2.10 B1813,2013-04-27 13:37:00,
2013-04-27 08:42:00,69.8,67.4,29.20,SSE,148,2.2,2.2,92,0.00,,,0.00,LWC V2.10 B1813,2013-04-27 13:42:00,
2013-04-27 08:48:00,69.8,67.4,29.20,SSE,165,2.2,4.9,92,0.00,,,0.00,LWC V2.10 B1813,2013-04-27 13:48:00,
2013-04-27 08:53:00,69.8,67.4,29.20,SSE,154,3.1,5.4,92,0.00,,,0.00,LWC V2.10 B1813,2013-04-27 13:53:00,
2013-04-27 08:58:00,70.3,67.6,29.20,SSW,197,4.9,4.9,91,0.00,,,0.00,LWC V2.10 B1813,2013-04-27 13:58:00,
2013-04-27 09:03:00,70.5,67.8,29.20,South,181,2.2,5.4,91,0.00,,,0.00,LWC V2.10 B1813,2013-04-27 14:03:00,
2013-04-27 09:08:00,70.9,68.1,29.20,SSE,164,4.5,5.4,91,0.00,,,0.00,LWC V2.10 B1813,2013-04-27 14:08:00,
2013-04-27 09:13:00,71.1,68.0,29.20,SSE,154,3.6,6.3,90,0.00,,,0.00,LWC V2.10 B1813,2013-04-27 14:13:00,
2013-04-27 09:18:00,71.6,68.2,29.20,SSW,200,3.1,3.6,89,0.00,,,0.00,LWC V2.10 B1813,2013-04-27 14:18:00,
2013-04-27 09:23:00,72.0,68.2,29.20,SSW,197,3.1,5.4,88,0.00,,,0.00,LWC V2.10 B1813,2013-04-27 14:23:00,
2013-04-27 09:28:00,72.0,68.2,29.20,SSW,200,3.1,4.0,88,0.00,,,0.00,LWC V2.10 B1813,2013-04-27 14:28:00,
2013-04-27 09:33:00,72.3,68.2,29.20,SSE,162,3.1,5.4,87,0.00,,,0.00,LWC V2.10 B1813,2013-04-27 14:33:00,
2013-04-27 09:38:00,72.5,68.1,29.20,SSE,167,3.1,6.3,86,0.00,,,0.00,LWC V2.10 B1813,2013-04-27 14:38:00,
2013-04-27 09:43:00,72.7,67.9,29.20,SSW,213,3.6,6.3,85,0.00,,,0.00,LWC V2.10 B1813,2013-04-27 14:43:00,
2013-04-27 09:48:00,72.9,67.7,29.20,South,191,3.6,7.6,84,0.00,,,0.00,LWC V2.10 B1813,2013-04-27 14:48:00,
2013-04-27 09:53:00,72.9,67.4,29.20,SSW,200,4.0,5.4,83,0.00,,,0.00,LWC V2.10 B1813,2013-04-27 14:53:00,
2013-04-27 09:58:00,73.2,67.4,29.20,SW,215,3.1,4.0,82,0.00,,,0.00,LWC V2.10 B1813,2013-04-27 14:58:00,
2013-04-27 10:03:00,73.6,67.4,29.20,SSE,166,3.1,5.4,81,0.00,,,0.00,LWC V2.10 B1813,2013-04-27 15:03:00,
2013-04-27 10:08:00,73.9,67.4,29.20,SE,130,3.6,5.8,80,0.00,,,0.00,LWC V2.10 B1813,2013-04-27 15:08:00,
2013-04-27 10:13:00,74.1,67.5,29.20,South,172,4.9,4.9,80,0.00,,,0.00,LWC V2.10 B1813,2013-04-27 15:13:00,
2013-04-27 10:18:00,74.7,67.7,29.20,SSE,152,5.8,5.8,79,0.00,,,0.00,LWC V2.10 B1813,2013-04-27 15:18:00,
2013-04-27 10:23:00,74.5,67.2,29.20,SSE,151,4.9,7.6,78,0.00,,,0.00,LWC V2.10 B1813,2013-04-27 15:23:00,
2013-04-27 10:28:00,73.9,66.6,29.20,SSW,197,3.1,4.0,78,0.00,,,0.00,LWC V2.10 B1813,2013-04-27 15:28:00,
2013-04-27 10:33:00,73.6,66.3,29.20,South,173,3.6,3.6,78,0.00,,,0.00,LWC V2.10 B1813,2013-04-27 15:33:00,
2013-04-27 10:38:00,73.6,66.3,29.20,SSE,168,5.4,5.4,78,0.00,,,0.00,LWC V2.10 B1813,2013-04-27 15:38:00,
2013-04-27 10:43:00,73.9,66.6,29.20,South,180,3.1,3.1,78,0.00,,,0.00,LWC V2.10 B1813,2013-04-27 15:43:00,
2013-04-27 10:48:00,74.5,66.8,29.20,SSE,163,3.1,3.6,77,0.00,,,0.00,LWC V2.10 B1813,2013-04-27 15:48:00,
2013-04-27 10:53:00,74.8,67.1,29.20,South,191,3.6,4.9,77,0.00,,,0.00,LWC V2.10 B1813,2013-04-27 15:53:00,
2013-04-27 10:58:00,75.4,67.3,29.20,South,173,4.0,6.3,76,0.00,,,0.00,LWC V2.10 B1813,2013-04-27 15:58:00,
2013-04-27 11:03:00,75.9,67.4,29.20,SW,221,3.6,3.6,75,0.00,,,0.00,LWC V2.10 B1813,2013-04-27 16:03:00,
2013-04-27 11:08:00,75.9,67.4,29.20,SE,127,3.6,7.6,75,0.00,,,0.00,LWC V2.10 B1813,2013-04-27 16:08:00,
2013-04-27 11:13:00,77.4,68.4,29.20,South,184,3.6,5.8,74,0.00,,,0.00,LWC V2.10 B1813,2013-04-27 16:13:00,
2013-04-27 11:18:00,77.4,68.0,29.20,SSW,194,0.0,3.6,73,0.00,,,0.00,LWC V2.10 B1813,2013-04-27 16:18:00,
2013-04-27 11:23:00,76.8,67.5,29.20,South,184,3.6,4.0,73,0.00,,,0.00,LWC V2.10 B1813,2013-04-27 16:23:00,
2013-04-27 11:28:00,76.3,67.0,29.20,WSW,238,0.0,3.1,73,0.00,,,0.00,LWC V2.10 B1813,2013-04-27 16:28:00,
2013-04-27 11:33:00,76.3,67.0,29.20,SSW,202,3.6,4.0,73,0.00,,,0.00,LWC V2.10 B1813,2013-04-27 16:33:00,
2013-04-27 11:38:00,75.9,65.8,29.20,SSW,212,0.0,4.0,71,0.00,,,0.00,LWC V2.10 B1813,2013-04-27 16:38:00,
2013-04-27 11:43:00,76.6,66.5,29.20,SSW,205,0.0,0.0,71,0.00,,,0.00,LWC V2.10 B1813,2013-04-27 16:43:00,
2013-04-27 11:48:00,77.2,66.6,29.20,WNW,288,2.2,2.7,70,0.00,,,0.00,LWC V2.10 B1813,2013-04-27 16:48:00,
2013-04-27 11:53:00,78.1,67.1,29.20,SSW,197,2.7,3.1,69,0.00,,,0.00,LWC V2.10 B1813,2013-04-27 16:53:00,
2013-04-27 11:58:00,78.4,67.0,29.20,SSW,193,3.1,4.5,68,0.00,,,0.00,LWC V2.10 B1813,2013-04-27 16:58:00,
2013-04-27 12:03:00,79.2,67.2,29.20,SW,222,3.1,4.0,67,0.00,,,0.00,LWC V2.10 B1813,2013-04-27 17:03:00,
2013-04-27 12:08:00,79.2,66.4,29.20,West,268,0.0,2.7,65,0.00,,,0.00,LWC V2.10 B1813,2013-04-27 17:08:00,
2013-04-27 12:13:00,79.9,66.6,29.20,South,189,4.9,4.9,64,0.00,,,0.00,LWC V2.10 B1813,2013-04-27 17:13:00,
2013-04-27 12:18:00,80.8,67.0,29.20,SSE,148,5.8,6.3,63,0.00,,,0.00,LWC V2.10 B1813,2013-04-27 17:18:00,
2013-04-27 12:23:00,81.1,66.9,29.20,South,183,2.7,4.9,62,0.00,,,0.00,LWC V2.10 B1813,2013-04-27 17:23:00,
2013-04-27 12:28:00,81.3,67.0,29.20,ESE,102,3.1,3.1,62,0.00,,,0.00,LWC V2.10 B1813,2013-04-27 17:28:00,
2013-04-27 12:33:00,81.3,66.6,29.20,ESE,106,2.2,4.0,61,0.00,,,0.00,LWC V2.10 B1813,2013-04-27 17:33:00,
2013-04-27 12:38:00,80.4,65.7,29.20,SSE,165,0.0,3.1,61,0.00,,,0.00,LWC V2.10 B1813,2013-04-27 17:38:00,
2013-04-27 12:43:00,80.8,66.5,29.20,ESE,118,3.1,3.6,62,0.00,,,0.00,LWC V2.10 B1813,2013-04-27 17:43:00,
2013-04-27 12:48:00,81.5,66.7,29.18,WNW,285,4.5,4.5,61,0.00,,,0.00,LWC V2.10 B1813,2013-04-27 17:48:00,
2013-04-27 12:53:00,81.0,65.7,29.18,NW,306,0.0,0.0,60,0.00,,,0.00,LWC V2.10 B1813,2013-04-27 17:53:00,
2013-04-27 12:58:00,80.8,65.6,29.18,WSW,255,3.1,3.1,60,0.00,,,0.00,LWC V2.10 B1813,2013-04-27 17:58:00,
2013-04-27 13:03:00,80.2,65.5,29.18,West,263,0.0,2.7,61,0.00,,,0.00,LWC V2.10 B1813,2013-04-27 18:03:00,
2013-04-27 13:08:00,80.6,65.9,29.18,WSW,249,0.0,0.0,61,0.00,,,0.00,LWC V2.10 B1813,2013-04-27 18:08:00,
2013-04-27 13:13:00,82.0,66.8,29.18,North,7,2.2,4.0,60,0.00,,,0.00,LWC V2.10 B1813,2013-04-27 18:13:00,
2013-04-27 13:18:00,82.8,65.4,29.18,WNW,298,0.0,3.6,56,0.00,,,0.00,LWC V2.10 B1813,2013-04-27 18:18:00,
2013-04-27 13:23:00,82.4,64.1,29.18,SW,218,3.1,5.4,54,0.00,,,0.00,LWC V2.10 B1813,2013-04-27 18:23:00,
2013-04-27 13:28:00,81.5,63.7,29.18,South,184,2.2,4.0,55,0.00,,,0.00,LWC V2.10 B1813,2013-04-27 18:28:00,
2013-04-27 13:33:00,82.0,63.7,29.18,SW,228,3.1,4.9,54,0.00,,,0.00,LWC V2.10 B1813,2013-04-27 18:33:00,
2013-04-27 13:38:00,83.5,64.5,29.18,ESE,119,8.3,8.3,53,0.00,,,0.00,LWC V2.10 B1813,2013-04-27 18:38:00,
2013-04-27 13:43:00,84.0,63.9,29.18,SSE,150,3.6,6.3,51,0.00,,,0.00,LWC V2.10 B1813,2013-04-27 18:43:00,
2013-04-27 13:48:00,83.8,63.7,29.15,SSE,157,3.6,6.7,51,0.00,,,0.00,LWC V2.10 B1813,2013-04-27 18:48:00,
2013-04-27 13:53:00,84.0,63.9,29.15,NE,52,0.0,4.0,51,0.00,,,0.00,LWC V2.10 B1813,2013-04-27 18:53:00,
2013-04-27 13:58:00,84.9,63.6,29.15,NNE,23,3.1,8.1,49,0.00,,,0.00,LWC V2.10 B1813,2013-04-27 18:58:00,
2013-04-27 14:03:00,85.3,62.7,29.15,SSW,192,2.7,6.3,47,0.00,,,0.00,LWC V2.10 B1813,2013-04-27 19:03:00,
2013-04-27 14:04:00,85.3,62.7,29.15,SSW,192,7.6,7.6,47,0.00,,,0.00,LWC V2.10 B1813,2013-04-27 19:04:00,
2013-04-27 14:09:00,84.6,62.1,29.15,ENE,59,0.0,8.1,47,0.00,,,0.00,LWC V2.10 B1813,2013-04-27 19:09:00,
2013-04-27 14:14:00,85.6,63.1,29.15,SSE,161,8.1,8.1,47,0.00,,,0.00,LWC V2.10 B1813,2013-04-27 19:14:00,
2013-04-27 14:19:00,84.7,61.6,29.15,South,171,4.0,5.8,46,0.00,,,0.00,LWC V2.10 B1813,2013-04-27 19:19:00,
2013-04-27 14:24:00,83.7,60.7,29.15,SE,136,3.1,6.3,46,0.00,,,0.00,LWC V2.10 B1813,2013-04-27 19:24:00,
2013-04-27 14:29:00,82.6,59.7,29.15,SSW,211,4.0,4.0,46,0.00,,,0.00,LWC V2.10 B1813,2013-04-27 19:29:00,
2013-04-27 14:34:00,82.0,59.8,29.15,SSW,192,4.0,4.0,47,0.00,,,0.00,LWC V2.10 B1813,2013-04-27 19:34:00,
2013-04-27 14:39:00,81.5,59.3,29.15,South,188,0.0,3.6,47,0.00,,,0.00,LWC V2.10 B1813,2013-04-27 19:39:00,
2013-04-27 14:44:00,81.3,59.1,29.15,SSE,165,4.0,4.0,47,0.00,,,0.00,LWC V2.10 B1813,2013-04-27 19:44:00,
2013-04-27 14:49:00,81.1,60.1,29.15,SSE,153,0.0,0.0,49,0.00,,,0.00,LWC V2.10 B1813,2013-04-27 19:49:00,
2013-04-27 14:54:00,81.0,60.5,29.15,NNE,31,0.0,2.2,50,0.00,,,0.00,LWC V2.10 B1813,2013-04-27 19:54:00,
2013-04-27 14:59:00,80.2,61.5,29.15,East,92,6.3,6.3,53,0.00,,,0.00,LWC V2.10 B1813,2013-04-27 19:59:00,
2013-04-27 15:04:00,79.2,61.6,29.12,East,85,6.3,7.6,55,0.00,,,0.00,LWC V2.10 B1813,2013-04-27 20:04:00,
2013-04-27 15:09:00,78.6,62.6,29.12,East,96,4.9,11.0,58,0.00,,,0.00,LWC V2.10 B1813,2013-04-27 20:09:00,
2013-04-27 15:14:00,78.6,63.1,29.12,East,81,8.3,8.3,59,0.00,,,0.00,LWC V2.10 B1813,2013-04-27 20:14:00,
2013-04-27 15:19:00,79.0,63.4,29.09,SSW,204,3.1,4.0,59,0.00,,,0.00,LWC V2.10 B1813,2013-04-27 20:19:00,
2013-04-27 15:24:00,79.2,64.5,29.09,West,264,4.0,6.3,61,0.00,,,0.00,LWC V2.10 B1813,2013-04-27 20:24:00,
2013-04-27 15:29:00,80.4,65.2,29.09,SSE,151,3.6,5.8,60,0.00,,,0.00,LWC V2.10 B1813,2013-04-27 20:29:00,
2013-04-27 15:34:00,81.1,64.9,29.15,ESE,121,4.0,4.0,58,0.00,,,0.00,LWC V2.10 B1813,2013-04-27 20:34:00,
2013-04-27 15:39:00,81.7,64.9,29.15,SE,144,2.7,3.1,57,0.00,,,0.00,LWC V2.10 B1813,2013-04-27 20:39:00,
2013-04-27 15:44:00,81.1,63.9,29.15,ENE,77,2.2,4.0,56,0.00,,,0.00,LWC V2.10 B1813,2013-04-27 20:44:00,
2013-04-27 15:49:00,80.6,63.4,29.12,SSE,157,3.1,4.9,56,0.00,,,0.00,LWC V2.10 B1813,2013-04-27 20:49:00,
2013-04-27 15:54:00,80.2,64.1,29.12,South,183,4.0,4.9,58,0.00,,,0.00,LWC V2.10 B1813,2013-04-27 20:54:00,
2013-04-27 15:59:00,80.2,65.1,29.12,SE,144,5.4,5.4,60,0.00,,,0.00,LWC V2.10 B1813,2013-04-27 20:59:00,
2013-04-27 16:04:00,80.2,65.1,29.12,SSE,149,2.7,5.4,60,0.00,,,0.00,LWC V2.10 B1813,2013-04-27 21:04:00,
2013-04-27 16:09:00,81.3,65.6,29.12,ESE,117,3.1,5.4,59,0.00,,,0.00,LWC V2.10 B1813,2013-04-27 21:09:00,
2013-04-27 16:14:00,82.0,65.8,29.12,SE,140,4.0,5.8,58,0.00,,,0.00,LWC V2.10 B1813,2013-04-27 21:14:00,
2013-04-27 16:19:00,82.8,66.4,29.12,East,82,6.3,6.3,58,0.00,,,0.00,LWC V2.10 B1813,2013-04-27 21:19:00,
2013-04-27 16:24:00,83.3,66.9,29.12,East,87,0.0,0.0,58,0.00,,,0.00,LWC V2.10 B1813,2013-04-27 21:24:00,
2013-04-27 16:29:00,83.5,66.1,29.12,NNW,340,3.1,3.6,56,0.00,,,0.00,LWC V2.10 B1813,2013-04-27 21:29:00,
2013-04-27 16:34:00,82.6,65.3,29.12,East,94,3.1,5.4,56,0.00,,,0.00,LWC V2.10 B1813,2013-04-27 21:34:00,
2013-04-27 16:39:00,81.7,64.9,29.12,East,79,0.0,4.9,57,0.00,,,0.00,LWC V2.10 B1813,2013-04-27 21:39:00,
2013-04-27 16:44:00,81.1,63.9,29.12,North,0,2.2,4.0,56,0.00,,,0.00,LWC V2.10 B1813,2013-04-27 21:44:00,
2013-04-27 16:49:00,80.8,64.1,29.12,North,0,0.0,4.9,57,0.00,,,0.00,LWC V2.10 B1813,2013-04-27 21:49:00,
2013-04-27 16:54:00,80.8,64.1,29.12,NE,34,3.6,4.9,57,0.00,,,0.00,LWC V2.10 B1813,2013-04-27 21:54:00,
2013-04-27 16:59:00,80.6,63.9,29.12,NNW,346,0.0,4.0,57,0.00,,,0.00,LWC V2.10 B1813,2013-04-27 21:59:00,
2013-04-27 17:04:00,80.4,64.3,29.12,NNW,343,4.0,5.4,58,0.00,,,0.00,LWC V2.10 B1813,2013-04-27 22:04:00,
2013-04-27 17:09:00,79.7,65.0,29.12,NNW,342,4.0,4.0,61,0.00,,,0.00,LWC V2.10 B1813,2013-04-27 22:09:00,
2013-04-27 17:14:00,77.5,64.8,29.12,North,353,10.1,10.1,65,0.00,,,0.00,LWC V2.10 B1813,2013-04-27 22:14:00,
2013-04-27 17:19:00,75.4,64.1,29.09,North,9,6.3,6.3,68,0.00,,,0.00,LWC V2.10 B1813,2013-04-27 22:19:00,
2013-04-27 17:24:00,74.5,64.4,29.09,NE,41,3.1,4.0,71,0.00,,,0.00,LWC V2.10 B1813,2013-04-27 22:24:00,
2013-04-27 17:29:00,73.4,65.0,29.09,East,84,5.8,5.8,75,0.00,,,0.00,LWC V2.10 B1813,2013-04-27 22:29:00,
2013-04-27 17:34:00,72.9,65.2,29.09,ENE,57,0.0,0.0,77,0.00,,,0.00,LWC V2.10 B1813,2013-04-27 22:34:00,
2013-04-27 17:39:00,72.3,65.1,29.09,ENE,67,2.7,4.0,78,0.00,,,0.00,LWC V2.10 B1813,2013-04-27 22:39:00,
2013-04-27 17:44:00,72.0,65.1,29.09,ENE,70,3.1,5.8,79,0.00,,,0.00,LWC V2.10 B1813,2013-04-27 22:44:00,
2013-04-27 17:49:00,72.7,65.8,29.06,SSE,158,3.1,3.6,79,0.00,,,0.00,LWC V2.10 B1813,2013-04-27 22:49:00,
2013-04-27 17:54:00,73.6,65.5,29.06,NNE,15,0.0,3.6,76,0.00,,,0.00,LWC V2.10 B1813,2013-04-27 22:54:00,
2013-04-27 17:59:00,74.1,65.7,29.06,North,357,0.0,2.7,75,0.00,,,0.00,LWC V2.10 B1813,2013-04-27 22:59:00,
2013-04-27 18:04:00,74.3,65.5,29.09,North,357,0.0,0.0,74,0.00,,,0.00,LWC V2.10 B1813,2013-04-27 23:04:00,
2013-04-27 18:09:00,74.5,66.4,29.09,NE,36,2.7,5.4,76,0.00,,,0.00,LWC V2.10 B1813,2013-04-27 23:09:00,
2013-04-27 18:14:00,75.4,66.5,29.09,NNE,17,5.4,7.2,74,0.00,,,0.00,LWC V2.10 B1813,2013-04-27 23:14:00,
2013-04-27 18:19:00,76.5,66.7,29.09,East,81,5.4,5.4,72,0.00,,,0.00,LWC V2.10 B1813,2013-04-27 23:19:00,
2013-04-27 18:24:00,76.8,66.3,29.09,East,90,2.7,5.4,70,0.00,,,0.00,LWC V2.10 B1813,2013-04-27 23:24:00,
2013-04-27 18:29:00,77.2,66.2,29.09,East,87,0.0,5.8,69,0.00,,,0.00,LWC V2.10 B1813,2013-04-27 23:29:00,
2013-04-27 18:34:00,77.4,66.4,29.09,ESE,102,2.7,5.8,69,0.00,,,0.00,LWC V2.10 B1813,2013-04-27 23:34:00,
2013-04-27 18:39:00,77.4,66.0,29.09,ESE,119,2.2,4.0,68,0.00,,,0.00,LWC V2.10 B1813,2013-04-27 23:39:00,
2013-04-27 18:44:00,77.5,66.1,29.09,East,82,2.2,3.6,68,0.00,,,0.00,LWC V2.10 B1813,2013-04-27 23:44:00,
2013-04-27 18:49:00,77.7,66.3,29.09,NE,53,0.0,4.9,68,0.00,,,0.00,LWC V2.10 B1813,2013-04-27 23:49:00,
2013-04-27 18:54:00,78.1,66.6,29.09,ENE,68,2.2,4.9,68,0.00,,,0.00,LWC V2.10 B1813,2013-04-27 23:54:00,
2013-04-27 18:59:00,78.1,66.2,29.09,East,79,2.2,3.1,67,0.00,,,0.00,LWC V2.10 B1813,2013-04-27 23:59:00,
2013-04-27 19:04:00,78.1,66.2,29.09,NNE,16,4.9,4.9,67,0.00,,,0.00,LWC V2.10 B1813,2013-04-28 00:04:00,
2013-04-27 19:09:00,77.5,66.1,29.09,ESE,104,3.6,3.6,68,0.00,,,0.00,LWC V2.10 B1813,2013-04-28 00:09:00,
2013-04-27 19:14:00,76.8,65.9,29.09,ENE,58,3.1,3.6,69,0.00,,,0.00,LWC V2.10 B1813,2013-04-28 00:14:00,
2013-04-27 19:19:00,76.6,65.7,29.09,East,89,3.1,3.1,69,0.00,,,0.00,LWC V2.10 B1813,2013-04-28 00:19:00,
2013-04-27 19:24:00,76.3,65.3,29.09,ENE,66,2.7,5.4,69,0.00,,,0.00,LWC V2.10 B1813,2013-04-28 00:24:00,
2013-04-27 19:29:00,75.9,65.0,29.09,ENE,77,4.9,4.9,69,0.00,,,0.00,LWC V2.10 B1813,2013-04-28 00:29:00,
2013-04-27 19:34:00,75.7,64.8,29.09,East,80,3.1,4.0,69,0.00,,,0.00,LWC V2.10 B1813,2013-04-28 00:34:00,
2013-04-27 19:39:00,75.6,64.7,29.09,ENE,69,2.7,3.6,69,0.00,,,0.00,LWC V2.10 B1813,2013-04-28 00:39:00,
2013-04-27 19:44:00,75.4,64.9,29.09,East,93,2.7,6.3,70,0.00,,,0.00,LWC V2.10 B1813,2013-04-28 00:44:00,
2013-04-27 19:49:00,75.2,64.3,29.06,East,95,2.7,3.1,69,0.00,,,0.00,LWC V2.10 B1813,2013-04-28 00:49:00,
2013-04-27 19:54:00,75.0,64.1,29.06,East,86,0.0,5.8,69,0.00,,,0.00,LWC V2.10 B1813,2013-04-28 00:54:00,
2013-04-27 19:59:00,75.0,64.1,29.06,NNE,33,0.0,0.0,69,0.00,,,0.00,LWC V2.10 B1813,2013-04-28 00:59:00,
2013-04-27 20:04:00,75.0,64.1,29.09,East,89,0.0,0.0,69,0.00,,,0.00,LWC V2.10 B1813,2013-04-28 01:04:00,
2013-04-27 20:09:00,74.8,64.0,29.09,North,0,0.0,2.2,69,0.00,,,0.00,LWC V2.10 B1813,2013-04-28 01:09:00,
2013-04-27 20:14:00,74.7,63.8,29.09,North,357,2.2,2.2,69,0.00,,,0.00,LWC V2.10 B1813,2013-04-28 01:14:00,
2013-04-27 20:19:00,74.5,63.6,29.09,ESE,106,4.0,4.0,69,0.00,,,0.00,LWC V2.10 B1813,2013-04-28 01:19:00,
2013-04-27 20:24:00,74.1,63.3,29.09,North,353,2.2,3.6,69,0.00,,,0.00,LWC V2.10 B1813,2013-04-28 01:24:00,
2013-04-27 20:29:00,73.9,63.1,29.09,NE,35,2.7,4.0,69,0.00,,,0.00,LWC V2.10 B1813,2013-04-28 01:29:00,
2013-04-27 20:34:00,73.6,62.8,29.09,ENE,75,2.2,4.9,69,0.00,,,0.00,LWC V2.10 B1813,2013-04-28 01:34:00,
2013-04-27 20:39:00,73.4,62.6,29.09,East,80,2.7,7.6,69,0.00,,,0.00,LWC V2.10 B1813,2013-04-28 01:39:00,
2013-04-27 20:44:00,73.0,62.7,29.09,East,97,3.6,5.8,70,0.00,,,0.00,LWC V2.10 B1813,2013-04-28 01:44:00,
2013-04-27 20:49:00,73.0,62.7,29.09,East,88,3.1,3.6,70,0.00,,,0.00,LWC V2.10 B1813,2013-04-28 01:49:00,
2013-04-27 20:54:00,72.9,62.1,29.09,East,89,2.7,4.9,69,0.00,,,0.00,LWC V2.10 B1813,2013-04-28 01:54:00,
2013-04-27 20:59:00,72.9,62.1,29.09,ENE,62,0.0,4.0,69,0.00,,,0.00,LWC V2.10 B1813,2013-04-28 01:59:00,
2013-04-27 21:04:00,72.7,61.9,29.09,ENE,57,2.7,4.9,69,0.00,,,0.00,LWC V2.10 B1813,2013-04-28 02:04:00,
2013-04-27 21:09:00,72.5,61.7,29.09,NNE,26,2.7,5.4,69,0.00,,,0.00,LWC V2.10 B1813,2013-04-28 02:09:00,
2013-04-27 21:14:00,72.3,61.6,29.09,East,97,2.2,6.3,69,0.00,,,0.00,LWC V2.10 B1813,2013-04-28 02:14:00,
2013-04-27 21:19:00,72.3,61.2,29.09,North,357,0.0,5.8,68,0.00,,,0.00,LWC V2.10 B1813,2013-04-28 02:19:00,
2013-04-27 21:24:00,72.3,61.2,29.09,NE,49,4.9,4.9,68,0.00,,,0.00,LWC V2.10 B1813,2013-04-28 02:24:00,
2013-04-27 21:29:00,72.1,61.0,29.09,NE,52,0.0,4.0,68,0.00,,,0.00,LWC V2.10 B1813,2013-04-28 02:29:00,
2013-04-27 21:34:00,72.1,60.6,29.12,East,92,4.9,4.9,67,0.00,,,0.00,LWC V2.10 B1813,2013-04-28 02:34:00,
2013-04-27 21:39:00,72.1,60.6,29.12,ENE,70,4.0,6.3,67,0.00,,,0.00,LWC V2.10 B1813,2013-04-28 02:39:00,
2013-04-27 21:44:00,72.1,60.1,29.12,East,83,5.4,6.7,66,0.00,,,0.00,LWC V2.10 B1813,2013-04-28 02:44:00,
2013-04-27 21:49:00,72.0,60.4,29.12,East,97,3.1,5.4,67,0.00,,,0.00,LWC V2.10 B1813,2013-04-28 02:49:00,
2013-04-27 21:54:00,71.8,60.2,29.12,ENE,78,0.0,4.0,67,0.00,,,0.00,LWC V2.10 B1813,2013-04-28 02:54:00,
2013-04-27 21:59:00,71.8,60.2,29.12,East,100,3.6,5.4,67,0.00,,,0.00,LWC V2.10 B1813,2013-04-28 02:59:00,
2013-04-27 22:04:00,71.8,60.2,29.12,NE,47,4.0,5.4,67,0.00,,,0.00,LWC V2.10 B1813,2013-04-28 03:04:00,
2013-04-27 22:09:00,71.8,60.2,29.12,NE,52,4.0,4.0,67,0.00,,,0.00,LWC V2.10 B1813,2013-04-28 03:09:00,
2013-04-27 22:14:00,72.0,60.4,29.12,East,96,3.1,4.0,67,0.00,,,0.00,LWC V2.10 B1813,2013-04-28 03:14:00,
2013-04-27 22:19:00,71.8,60.2,29.15,East,79,0.0,4.0,67,0.00,,,0.00,LWC V2.10 B1813,2013-04-28 03:19:00,
2013-04-27 22:24:00,71.8,60.2,29.15,ESE,105,2.7,3.6,67,0.00,,,0.00,LWC V2.10 B1813,2013-04-28 03:24:00,
2013-04-27 22:29:00,71.6,60.0,29.15,ENE,67,4.9,4.9,67,0.00,,,0.00,LWC V2.10 B1813,2013-04-28 03:29:00,
2013-04-27 22:34:00,71.6,60.0,29.15,NE,47,2.7,4.0,67,0.00,,,0.00,LWC V2.10 B1813,2013-04-28 03:34:00,
2013-04-27 22:39:00,71.6,60.5,29.15,NE,56,2.2,4.0,68,0.00,,,0.00,LWC V2.10 B1813,2013-04-28 03:39:00,
2013-04-27 22:44:00,71.6,60.0,29.15,NE,47,2.2,4.0,67,0.00,,,0.00,LWC V2.10 B1813,2013-04-28 03:44:00,
2013-04-27 22:49:00,71.6,60.0,29.15,East,93,0.0,2.7,67,0.00,,,0.00,LWC V2.10 B1813,2013-04-28 03:49:00,
2013-04-27 22:54:00,71.6,60.0,29.15,ENE,67,3.6,5.4,67,0.00,,,0.00,LWC V2.10 B1813,2013-04-28 03:54:00,
2013-04-27 22:59:00,71.6,60.0,29.15,East,79,2.7,4.0,67,0.00,,,0.00,LWC V2.10 B1813,2013-04-28 03:59:00,
2013-04-27 23:01:00,71.6,60.0,29.15,East,95,3.6,4.0,67,0.00,,,0.00,LWC V2.10 B1813,2013-04-28 04:01:00,
2013-04-27 23:06:00,71.6,60.0,29.15,East,85,2.2,7.2,67,0.00,,,0.00,LWC V2.10 B1813,2013-04-28 04:06:00,
2013-04-27 23:11:00,71.6,60.5,29.15,East,96,2.2,6.3,68,0.00,,,0.00,LWC V2.10 B1813,2013-04-28 04:11:00,
2013-04-27 23:16:00,71.4,61.5,29.15,East,94,4.0,5.8,71,0.00,,,0.00,LWC V2.10 B1813,2013-04-28 04:16:00,
2013-04-27 23:21:00,71.1,62.3,29.15,East,96,4.9,5.8,74,0.00,,,0.00,LWC V2.10 B1813,2013-04-28 04:21:00,
2013-04-27 23:24:00,70.9,62.9,29.15,SSE,149,5.8,6.3,76,0.00,,,0.00,LWC V2.10 B1813,2013-04-28 04:24:00,
2013-04-27 23:29:00,70.5,63.3,29.15,East,99,3.6,5.8,78,0.00,,,0.00,LWC V2.10 B1813,2013-04-28 04:29:00,
2013-04-27 23:34:00,70.3,63.5,29.15,SSE,149,3.6,5.4,79,0.00,,,0.00,LWC V2.10 B1813,2013-04-28 04:34:00,
2013-04-27 23:39:00,70.0,63.2,29.15,ESE,119,3.1,6.7,79,0.00,,,0.00,LWC V2.10 B1813,2013-04-28 04:39:00,
2013-04-27 23:45:00,69.8,63.3,29.15,SE,131,7.6,8.7,80,0.00,,,0.00,LWC V2.10 B1813,2013-04-28 04:45:00,
2013-04-27 23:50:00,69.6,63.5,29.15,SSE,152,5.4,10.5,81,0.00,,,0.00,LWC V2.10 B1813,2013-04-28 04:50:00,
2013-04-27 23:55:00,69.3,63.5,29.15,ESE,116,5.4,11.0,82,0.00,,,0.00,LWC V2.10 B1813,2013-04-28 04:55:00,